This is the latest recevied weather packets stored in our database for station/object KD0ISH. If no packets are shown the sender has not sent any weather packets the latest 10 day(s).
| Time | Temp. | Humidity | Pressure | Rain* | Wind** | Luminosity | Snow |
|---|---|---|---|---|---|---|---|
| 1777729784 | 11.11° C | 72% | 1022.3 hPa | 0 mm | - | 86 W/m² | - |
| 1777729481 | 11.11° C | 73% | 1022.1 hPa | 0 mm | - | 44 W/m² | - |
| 1777729178 | 11.11° C | 73% | 1022.2 hPa | 0 mm | - | 56 W/m² | - |
| 1777728874 | 10.56° C | 74% | 1022.2 hPa | 0 mm | - | 240 W/m² | - |
| 1777728571 | 10.56° C | 74% | 1021.9 hPa | 0 mm | - | 204 W/m² | - |
| 1777728268 | 10° C | 76% | 1022 hPa | 0 mm | - | 223 W/m² | - |
| 1777727966 | 9.44° C | 75% | 1021.9 hPa | 0 mm | - | 201 W/m² | - |
| 1777727662 | 8.89° C | 77% | 1021.8 hPa | 0 mm | - | 191 W/m² | - |
| 1777727359 | 8.33° C | 79% | 1022 hPa | 0 mm | - | 173 W/m² | - |
| 1777727057 | 8.33° C | 79% | 1021.8 hPa | 0 mm | - | 161 W/m² | - |
| 1777726754 | 7.78° C | 79% | 1021.6 hPa | 0 mm | - | 119 W/m² | - |
| 1777726451 | 7.78° C | 79% | 1021.9 hPa | 0 mm | - | 53 W/m² | - |
| 1777726148 | 7.78° C | 81% | 1021.6 hPa | 0 mm | - | 99 W/m² | - |
| 1777725844 | 7.78° C | 81% | 1021.8 hPa | 0 mm | - | 104 W/m² | - |
| 1777725542 | 7.22° C | 82% | 1021.9 hPa | 0 mm | - | 38 W/m² | - |
| 1777725239 | 7.22° C | 82% | 1021.8 hPa | 0 mm | - | 38 W/m² | - |
| 1777724936 | 7.22° C | 83% | 1021.4 hPa | 0 mm | - | 49 W/m² | - |
| 1777724632 | 6.67° C | 84% | 1021.4 hPa | 0 mm | - | 57 W/m² | - |
| 1777724331 | 6.67° C | 85% | 1021.4 hPa | 0 mm | - | 51 W/m² | - |
| 1777724028 | 6.67° C | 86% | 1021.2 hPa | 0 mm | - | 39 W/m² | - |
| 1777723725 | 6.11° C | 88% | 1021.1 hPa | 0 mm | - | 33 W/m² | - |
| 1777723421 | 5.56° C | 88% | 1020.9 hPa | 0 mm | - | 28 W/m² | - |
| 1777723118 | 5.56° C | 89% | 1021.2 hPa | 0 mm | - | 25 W/m² | - |
| 1777722816 | 5° C | 89% | 1021 hPa | 0 mm | - | 22 W/m² | - |
| 1777722512 | 5° C | 89% | 1020.9 hPa | 0 mm | - | 16 W/m² | - |
* Rain latest hour (hover to see other rain measurements)
** Current wind speed in m/s (hover to see current wind gust speed)